Fremont, NE

12:23 AM CST on January 20, 2017 (GMT -0600)
Fremont Municipal

Weather History for KFET - May, 2013

Change the Weather History Date:

Tuesday, May 21, 2013

  Actual Average Record
Temperature  
Mean Temperature 57 °F -  
Max Temperature 61 °F 77 °F 93 °F (1973)
Min Temperature 53 °F 52 °F 33 °F (1968)
Degree Days  
Heating Degree Days 8    
Growing Degree Days 7 (Base 50)    
Moisture  
Dew Point 51 °F    
Average Humidity 79    
Maximum Humidity 98    
Minimum Humidity 64    
Precipitation  
Precipitation 0.00 in - - ()
Sea Level Pressure  
Sea Level Pressure 29.68 in    
Wind  
Wind Speed 14 mph (West)    
Max Wind Speed 21 mph    
Max Gust Speed 26 mph    
Visibility 10 miles    
Events      
Averages and records for this station are not official NWS values.
T = Trace of Precipitation, MM = Missing Value Source: NWS Daily Summary

Daily Weather History Graph

Daily Weather History Graph

Search for Another Location

Airport or City:

Trip Planner

Search our weather history database for the weather conditions in past years. The results will help you decide how hot, cold, wet, or windy it might be!

Date:

Astronomy

May. 21, 2013 Rise Set
Actual Time 6:01 AM CDT 8:44 PM CDT
Civil Twilight 5:29 AM CDT 9:16 PM CDT
Nautical Twilight 4:48 AM CDT 9:57 PM CDT
Astronomical Twilight 4:02 AM CDT 10:43 PM CDT
Moon 4:57 PM CDT (5/21) 3:32 AM CDT (5/21)
Length of Visible Light 15h 47m
Length of Day
14h 42m
Waxing Gibbous, 84% of the Moon is Illuminated
May 21
Waxing Gibbous
May 24
Full
May 31
Last Quarter
Jun 8
New
Jun 16
First Quarter

Hourly Weather History & Observations

Time (CDT) Temp. Dew Point Humidity Pressure Visibility Wind Dir Wind Speed Gust Speed Precip Events Conditions
12:15 AM 59.9 °F 58.6 °F 96% 29.61 in 10.0 mi West 12.7 mph - N/A   Mostly Cloudy
12:35 AM 59.5 °F 58.1 °F 95% 29.62 in 10.0 mi West 13.8 mph - N/A   Scattered Clouds
12:55 AM 60.1 °F 56.8 °F 89% 29.62 in 10.0 mi West 12.7 mph - N/A   Mostly Cloudy
1:15 AM 59.9 °F 56.3 °F 88% 29.63 in 10.0 mi West 12.7 mph - N/A   Overcast
1:35 AM 59.0 °F 55.4 °F 88% 29.63 in 10.0 mi West 11.5 mph - N/A   Mostly Cloudy
1:55 AM 59.2 °F 54.9 °F 86% 29.63 in 10.0 mi West 13.8 mph 18.4 mph N/A   Overcast
2:15 AM 59.0 °F 54.1 °F 84% 29.64 in 10.0 mi West 13.8 mph - N/A   Overcast
2:35 AM 58.5 °F 53.6 °F 84% 29.64 in 10.0 mi West 13.8 mph - N/A   Mostly Cloudy
2:55 AM 58.8 °F 53.2 °F 82% 29.63 in 10.0 mi West 18.4 mph 21.9 mph N/A   Overcast
3:15 AM 58.5 °F 52.2 °F 80% 29.64 in 10.0 mi West 17.3 mph 23.0 mph N/A   Overcast
3:35 AM 58.1 °F 52.2 °F 81% 29.64 in 10.0 mi West 13.8 mph - N/A   Overcast
3:55 AM 57.6 °F 52.2 °F 82% 29.64 in 10.0 mi West 13.8 mph 18.4 mph N/A   Mostly Cloudy
4:15 AM 57.2 °F 50.9 °F 79% 29.64 in 10.0 mi West 13.8 mph - N/A   Clear
4:35 AM 56.5 °F 50.2 °F 79% 29.64 in 10.0 mi West 11.5 mph 18.4 mph N/A   Mostly Cloudy
4:55 AM 56.3 °F 50.0 °F 79% 29.63 in 10.0 mi West 16.1 mph 21.9 mph N/A   Scattered Clouds
5:15 AM 55.4 °F 50.0 °F 82% 29.64 in 10.0 mi West 15.0 mph 21.9 mph N/A   Scattered Clouds
5:35 AM 55.9 °F 50.4 °F 82% 29.65 in 10.0 mi West 13.8 mph 23.0 mph N/A   Mostly Cloudy
5:55 AM 56.3 °F 50.4 °F 80% 29.65 in 10.0 mi West 11.5 mph 17.3 mph N/A   Overcast
6:15 AM 56.5 °F 49.8 °F 78% 29.65 in 10.0 mi West 16.1 mph - N/A   Overcast
6:35 AM 56.3 °F 49.5 °F 78% 29.67 in 10.0 mi WSW 13.8 mph - N/A   Scattered Clouds
6:55 AM 56.7 °F 49.6 °F 77% 29.67 in 10.0 mi West 10.4 mph 19.6 mph N/A   Scattered Clouds
7:15 AM 56.7 °F 49.3 °F 76% 29.67 in 10.0 mi West 15.0 mph 24.2 mph N/A   Clear
7:35 AM 57.2 °F 49.6 °F 76% 29.68 in 10.0 mi West 15.0 mph 23.0 mph N/A   Scattered Clouds
7:55 AM 57.6 °F 49.3 °F 74% 29.68 in 10.0 mi West 17.3 mph 26.5 mph N/A   Clear
8:15 AM 57.4 °F 49.3 °F 74% 29.69 in 10.0 mi West 17.3 mph 25.3 mph N/A   Scattered Clouds
8:35 AM 57.6 °F 48.9 °F 73% 29.69 in 10.0 mi West 17.3 mph 25.3 mph N/A   Mostly Cloudy
8:55 AM 58.3 °F 49.3 °F 72% 29.69 in 3.0 mi West 15.0 mph 21.9 mph N/A   Haze
9:15 AM 58.1 °F 48.9 °F 71% 29.69 in 10.0 mi West 13.8 mph - N/A   Mostly Cloudy
9:35 AM 58.1 °F 48.4 °F 70% 29.69 in 10.0 mi West 15.0 mph 21.9 mph N/A   Overcast
9:55 AM 59.2 °F 49.6 °F 71% 29.69 in 10.0 mi West 17.3 mph 21.9 mph N/A   Overcast
10:15 AM 59.2 °F 48.4 °F 67% 29.68 in 10.0 mi West 17.3 mph 24.2 mph N/A   Overcast
10:35 AM 58.8 °F 48.0 °F 67% 29.69 in 10.0 mi West 18.4 mph 23.0 mph N/A   Overcast
10:55 AM 58.6 °F 48.2 °F 68% 29.69 in 10.0 mi WSW 17.3 mph 25.3 mph N/A   Mostly Cloudy
11:15 AM 59.4 °F 48.9 °F 68% 29.68 in 10.0 mi West 13.8 mph 19.6 mph N/A   Overcast
11:35 AM 59.0 °F 48.2 °F 67% 29.68 in 10.0 mi West 17.3 mph 25.3 mph N/A   Overcast
11:55 AM 59.2 °F 48.0 °F 66% 29.69 in 10.0 mi WSW 16.1 mph 25.3 mph N/A   Overcast
12:15 PM 59.4 °F 48.6 °F 67% 29.68 in 10.0 mi West 18.4 mph 24.2 mph N/A   Overcast
12:35 PM 59.7 °F 48.9 °F 67% 29.68 in 10.0 mi West 13.8 mph 23.0 mph N/A   Overcast
12:55 PM 60.6 °F 48.9 °F 65% 29.69 in 10.0 mi WSW 15.0 mph 20.7 mph N/A   Overcast
1:15 PM 60.8 °F 48.6 °F 64% 29.69 in 10.0 mi WSW 10.4 mph 19.6 mph N/A   Overcast
1:35 PM 59.2 °F 48.4 °F 67% 29.70 in 10.0 mi WSW 13.8 mph 19.6 mph N/A   Overcast
1:55 PM 59.5 °F 48.4 °F 67% 29.70 in 10.0 mi WSW 13.8 mph 19.6 mph N/A   Overcast
2:15 PM 59.4 °F 48.7 °F 68% 29.70 in 10.0 mi West 16.1 mph 23.0 mph N/A   Overcast
2:35 PM 60.3 °F 49.8 °F 68% 29.71 in 10.0 mi WSW 16.1 mph 23.0 mph N/A   Overcast
2:55 PM 59.9 °F 51.3 °F 73% 29.71 in 10.0 mi SW 11.5 mph 16.1 mph N/A   Overcast
3:15 PM 59.9 °F 50.4 °F 71% 29.70 in 10.0 mi WSW 17.3 mph - N/A   Overcast
3:35 PM 60.8 °F 51.1 °F 70% 29.69 in 10.0 mi WSW 9.2 mph 18.4 mph N/A   Overcast
3:55 PM 60.8 °F 51.4 °F 71% 29.69 in 10.0 mi WSW 13.8 mph - N/A   Overcast
4:15 PM 61.0 °F 52.2 °F 73% 29.69 in 10.0 mi WSW 13.8 mph 19.6 mph N/A   Overcast
4:35 PM 61.0 °F 53.4 °F 76% 29.69 in 10.0 mi WSW 13.8 mph - N/A   Overcast
4:55 PM 60.8 °F 53.4 °F 77% 29.69 in 10.0 mi West 13.8 mph 17.3 mph N/A   Overcast
5:15 PM 60.6 °F 53.6 °F 78% 29.69 in 10.0 mi WSW 15.0 mph - N/A   Overcast
5:35 PM 59.9 °F 53.8 °F 80% 29.69 in 10.0 mi West 16.1 mph 23.0 mph N/A   Overcast
5:55 PM 59.2 °F 55.0 °F 86% 29.69 in 4.0 mi West 16.1 mph 23.0 mph N/A   Overcast
6:15 PM 59.0 °F 54.5 °F 85% 29.70 in 7.0 mi WSW 15.0 mph 19.6 mph N/A   Overcast
6:35 PM 58.6 °F 54.5 °F 86% 29.71 in 7.0 mi West 17.3 mph 21.9 mph N/A   Overcast
6:55 PM 57.4 °F 55.2 °F 92% 29.71 in 3.0 mi West 13.8 mph 19.6 mph N/A   Overcast
7:15 PM 56.8 °F 56.3 °F 98% 29.71 in 5.0 mi West 12.7 mph 18.4 mph N/A   Overcast
7:35 PM 57.4 °F 55.8 °F 94% 29.72 in 10.0 mi West 18.4 mph 23.0 mph N/A   Overcast
7:55 PM 57.0 °F 55.2 °F 94% 29.71 in 10.0 mi West 20.7 mph - N/A   Overcast
8:15 PM 56.3 °F 54.5 °F 94% 29.71 in 10.0 mi West 13.8 mph 23.0 mph N/A   Mostly Cloudy
8:35 PM 56.3 °F 54.1 °F 92% 29.71 in 10.0 mi West 12.7 mph 18.4 mph N/A   Mostly Cloudy
8:55 PM 56.5 °F 52.2 °F 85% 29.72 in 10.0 mi WNW 13.8 mph 23.0 mph N/A   Overcast
9:15 PM 55.2 °F 52.3 °F 90% 29.73 in 10.0 mi West 12.7 mph 18.4 mph N/A   Mostly Cloudy
9:35 PM 55.8 °F 51.8 °F 87% 29.73 in 10.0 mi WNW 17.3 mph 20.7 mph N/A   Overcast
9:55 PM 54.5 °F 50.5 °F 86% 29.73 in 10.0 mi WNW 15.0 mph 24.2 mph N/A   Scattered Clouds
10:15 PM 53.4 °F 50.4 °F 89% 29.72 in 10.0 mi WNW 13.8 mph - N/A   Scattered Clouds
10:35 PM 53.1 °F 50.2 °F 90% 29.73 in 10.0 mi WNW 8.1 mph - N/A   Scattered Clouds
10:55 PM 53.8 °F 50.5 °F 89% 29.73 in 10.0 mi WNW 8.1 mph - N/A   Mostly Cloudy
11:15 PM 53.8 °F 50.9 °F 90% 29.73 in 10.0 mi WNW 9.2 mph - N/A   Overcast
11:35 PM 53.8 °F 50.9 °F 90% 29.74 in 10.0 mi WNW 11.5 mph - N/A   Overcast
11:55 PM 53.8 °F 50.4 °F 88% 29.74 in 10.0 mi WNW 11.5 mph - N/A   Overcast